sat.trackr.live / text

‹ back to catalog

TRANSPORTER-15 OBJECT D

NORAD 66669 · 2025-276D

PAYLOAD ACTIVE UNKNOWN

§ Identity

Operator
Country
TBD
Launch date
2025-11-28
Launch site
AFWTR
Launch vehicle
Mass (kg)
RCS (m²)

External: N2YO · Heavens-Above · Gunter

§ Orbital elements

Epoch: 2026-05-25T03:48:15.593184Z

Period
94.37 min
Inclination
97.4074°
Eccentricity
0.0008297
Mean motion
15.25987524 rev/d
Perigee alt
482.1 km
Apogee alt
493.5 km
Semi-major
6,866.0 km
B*
1.0514e-3
RAAN
219.5569°
Arg perigee
100.3279°
Mean anomaly
259.8895°
Rev number
2,697

§ Raw data

TRANSPORTER-15 OBJECT D1 66669U 25276D   26145.15851381  .00027049  00000+0  10514-2 0  99992 66669  97.4074 219.5569 0008297 100.3279 259.8895 15.25987524 26979

JSON: /api/v1/satellites/66669 · /tle

For live sub-satellite position, see the globe view (requires WebGL).

§ Visibility from observer

Set your observer location to see the next 7 days of passes ≥ 10°. The values pass through the URL so the page stays shareable.

No JS? Fill the form by hand. The geolocation button needs JavaScript.